Regional Weather Roundup
Issued by NWS Cleveland, OH

Home | Current Version | Previous Version | Text Only | Print | Product List | Glossary Off
Versions: 1 2 3 4 5 6 7 8 9 10 11 12 13 14 15 16 17 18 19 20 21 22 23 24 25 26 27 28 29 30 31 32 33 34 35 36 37 38 39 40 41 42 43 44 45 46 47 48 49 50

000
ASUS41 KCLE 170610
RWRCLE
OHIO REGIONAL WEATHER ROUNDUP
NATIONAL WEATHER SERVICE WILMINGTON, OH
100 AM EST SUN DEC 17 2017

NOTE: "FAIR" INDICATES FEW OR NO CLOUDS BELOW 12,000 FEET WITH NO
SIGNIFICANT WEATHER AND/OR OBSTRUCTIONS TO VISIBILITY.

OHZ001>008-015>018-024>027-034-035-043-044-170700-
   NORTHWEST OHIO

CITY           SKY/WX    TMP DP  RH WIND       PRES   REMARKS
DEFIANCE       FOG       28  26  92 E6        30.14S VSB 1/2 WCI  22
FINDLAY        FAIR      27  23  85 E3        30.12F
TOLEDO EXPRESS CLOUDY    30  29  96 E5        30.15R WCI  25
TOLEDO EXEC    CLOUDY    31  28  89 NE5       30.16S WCI  26
LIMA           FAIR      36  27  69 S8        30.12S
$$

OHZ009>014-019>023-028>033-038-089-170700-
   NORTHEAST OHIO

CITY           SKY/WX    TMP DP  RH WIND       PRES   REMARKS
CLE-HOPKINS    FAIR      29  26  89 SE6       30.17R WCI  23
CLE-LAKEFRONT  FAIR      31  27  85 SE3       30.15R
CUY CO. ARPT   NOT AVBL
LORAIN-ELYRIA  FOG       23  20  88 CALM      30.14F VSB 1/4
ASHTABULA      FOG       20  20 100 CALM      30.17R VSB 1/4
AKRON-CANTON   FAIR      32  24  72 CALM      30.13R
WOOSTER        FAIR      29  24  82 SW5       30.14R WCI  24
MANSFIELD      FAIR      36  27  69 SW8       30.13R
YOUNGSTOWN     FAIR      27  25  92 SE5       30.13S WCI  22
$$

OHZ042-051>053-060>062-070>072-077>081-170700-
  SOUTHWEST OHIO

CITY           SKY/WX    TMP DP  RH WIND       PRES   REMARKS
CINC-COVINGTON FAIR      38  30  73 S7        30.17S
CINC-LUNKEN    FAIR      30  26  85 CALM      30.21R
HAMILTON       FAIR      27  24  89 CALM      30.18S
DAYTON         FAIR      37  28  70 S10       30.15F
WRIGHT-PAT AFB FAIR      28  25  87 CALM      30.15F
DAYTON GENERAL FAIR      34  26  72 S7        30.16S WCI  28
WILMINGTON     FAIR      35  29  78 SW9       30.17S WCI  28
$$

OHZ036-037-039>041-045>050-054>059-063>069-073>076-082>088-170700-
  CENTRAL AND SOUTHEAST OHIO

CITY           SKY/WX    TMP DP  RH WIND       PRES   REMARKS
COLUMBUS       FAIR      36  27  69 CALM      30.17S
OSU AIRPORT    FAIR      33  27  78 S5        30.15F WCI  29
BOLTON FIELD   FAIR      32  27  80 S6        30.17F WCI  26
RICKENBACK AFB FAIR      32  27  81 S6        30.17F WCI  27
NEWARK         FAIR      25  23  92 CALM      30.16S
MARION         FAIR      30  24  78 S7        30.14R WCI  23
LANCASTER      FAIR      36  28  73 SW6       30.17F
ZANESVILLE     FAIR      28  23  81 SW3       30.17S
NEW PHILLY     FAIR      26  23  88 SE5       30.17R WCI  20
$$




USA.gov is the U.S. government's official web portal to all federal, state and local government web resources and services.